{"data":{"norad_id":58089,"intl_designator":"2023-160Q","name":"STARLINK-30584","alt_names":[],"object_type":"PAYLOAD","status":"ACTIVE","operator":null,"country":"US","launch_date":"2023-10-18","launch_site_code":"AFETR","launch_vehicle":null,"mission":null,"orbit_class":"UNKNOWN","rcs_meters":null,"size_class":null,"mass_kg":null,"dimensions":null,"purposes":["comms"],"wikipedia_slug":null,"has_3d_model":false,"image_url":null,"decayed_at":null,"tle_current":{"epoch":"2026-09-20T03:01:08.130720Z","epoch_age_seconds":172790,"freshness":"FRESH","line1":"1 58089U 23160Q   26263.12578855 -.00000258  00000+0  13040-6 0  9991","line2":"2 58089  42.9941  59.6998 0001107  52.8506 307.2447 15.27574129162685","mean_motion":15.27574129,"eccentricity":0.0001107,"inclination_deg":42.9941,"raan_deg":59.6998,"arg_perigee_deg":52.8506,"mean_anomaly_deg":307.2447,"bstar":1.304e-7,"rev_number":16268,"period_min":94.267111013635,"perigee_km":482.30714073511,"apogee_km":483.82621122897,"semimajor_km":6861.203675982,"source":"CELESTRAK","updated_at":"2026-09-21T09:00:33.784208Z"}}}